Theta_e
310 309 307 308 311 313 316 315 315 314 312 312 309 308 309 310 311 312 313 312 310 307 305 304 303 301 299 298 298 299 298 297 295 294 293 292 290 289 289 288 288 288 288 287
305 308 309 307 307 309 311 313 312 312 311 304 305 306 309 309 311 312 312 311 308 306 303 302 300 298 297 296 296 297 296 294 293 292 291 289 289 288 288 288 287 287 287 286
307 307 308 310 308 306 308 309 310 311 311 306 307 307 309 310 311 311 311 309 306 303 302 300 298 297 295 294 294 294 294 292 291 290 289 288 288 288 287 287 287 286 286 286
305 308 312 308 307 307 307 307 307 308 307 307 308 306 308 309 310 310 308 304 302 301 299 297 295 294 293 293 293 292 291 290 289 288 288 288 287 287 287 286 286 286 286 285
305 309 308 307 305 307 306 307 305 307 306 305 305 306 306 308 308 307 304 301 299 297 294 293 292 292 291 291 291 290 289 288 288 288 287 287 287 287 286 286 285 286 285 285
304 309 310 306 305 303 304 308 304 306 306 305 307 308 306 305 304 302 299 296 293 292 291 291 290 291 290 288 288 287 288 287 287 287 287 287 286 286 285 285 285 285 285 285
301 304 307 305 299 302 306 306 303 303 304 306 307 305 301 301 299 295 293 292 292 292 291 289 289 289 287 287 287 287 287 287 287 286 286 286 286 285 285 285 285 284 284 284
301 305 305 296 301 305 300 298 301 301 303 304 299 298 297 294 293 291 291 291 289 288 287 287 288 288 286 286 287 287 286 286 286 286 285 285 285 285 285 284 284 284 284 283
303 303 297 293 294 293 293 297 299 300 299 296 295 293 292 291 291 290 289 289 288 287 286 286 287 287 286 286 286 286 286 286 285 285 285 285 285 284 284 284 284 283 283 283
301 296 293 291 291 290 292 294 295 296 294 292 291 291 290 289 289 288 288 287 287 286 285 285 286 286 286 286 286 286 285 284 284 284 284 284 284 283 284 283 283 283 283 282
292 291 291 289 288 289 290 291 291 291 291 291 290 289 288 287 287 287 287 286 286 285 285 284 285 285 285 286 286 285 284 284 284 284 283 283 283 283 283 282 283 283 282 282
295 291 290 288 288 288 288 288 289 289 288 288 288 287 287 287 286 286 286 286 285 285 284 284 285 285 285 285 284 284 283 283 283 282 282 282 282 281 281 282 282 282 282 282
290 287 287 286 286 287 287 287 287 287 287 287 286 286 286 286 286 286 285 285 285 284 284 284 284 284 284 283 283 283 283 283 283 282 282 282 281 281 280 280 280 281 281 282
287 287 287 286 286 286 286 286 287 286 286 286 286 286 286 286 285 285 284 284 284 284 284 284 283 283 283 283 283 283 283 282 282 282 282 281 281 280 280 280 280 280 280 280
286 286 286 286 286 286 286 286 285 285 285 285 285 285 285 285 284 284 284 284 284 283 283 283 282 282 282 282 282 282 282 282 282 282 281 281 280 280 280 280 280 280 279 279
285 285 285 285 285 285 285 285 285 285 285 285 285 284 284 284 283 283 283 283 283 282 282 282 282 282 282 282 281 281 282 283 281 280 280 280 280 280 280 280 280 279 278 278
287 285 285 285 285 285 285 285 285 285 284 284 284 284 283 283 282 282 282 282 282 282 282 282 281 282 282 281 281 281 281 281 281 280 280 280 280 280 279 279 279 278 278 278
286 286 286 286 286 286 285 284 284 284 284 284 283 283 283 282 282 281 281 282 281 281 281 281 281 281 281 281 281 281 280 280 280 280 280 280 279 279 278 278 278 277 277 277
284 284 284 284 284 284 283 283 283 283 283 283 283 282 281 281 281 281 281 281 281 281 281 281 282 281 281 281 280 280 280 280 279 279 279 279 278 277 277 277 277 276 276 276
283 282 282 282 282 282 282 282 282 282 282 282 281 281 280 280 280 280 281 280 280 280 281 281 281 281 280 281 280 280 279 279 279 279 279 278 277 277 276 276 276 276 276 276
281 281 281 280 280 280 280 281 281 280 281 281 280 280 279 279 280 280 280 279 280 281 280 281 281 280 280 281 280 279 279 279 278 278 277 276 276 276 275 275 276 275 275 276
279 279 279 278 278 278 278 279 279 279 279 279 279 279 279 279 279 279 280 280 280 281 280 281 281 281 280 279 279 278 278 278 277 276 276 276 275 275 275 275 276 276 276 277
278 278 277 277 277 277 278 278 278 278 278 278 278 278 278 278 278 279 279 279 280 280 280 280 280 281 279 278 278 278 277 277 276 276 275 275 275 275 275 275 275 276 277 277
276 276 276 276 277 277 276 277 277 277 277 277 277 277 278 278 278 279 279 280 280 280 280 280 281 280 278 278 278 277 277 276 276 275 275 276 275 275 275 275 276 277 277 277
275 275 275 275 275 275 276 276 277 276 276 277 277 277 277 277 278 278 279 279 280 279 281 281 281 279 278 277 277 276 276 276 276 276 275 275 275 275 275 275 276 277 277 277
275 274 275 275 275 276 276 276 276 276 276 276 276 277 277 277 278 278 278 278 279 278 279 279 279 278 277 277 276 276 276 276 276 276 276 276 275 275 275 276 277 277 277 277
274 275 274 274 275 275 276 276 275 275 275 276 277 277 277 277 277 278 278 278 278 278 277 277 277 277 277 276 276 275 275 275 275 275 275 275 275 275 276 277 277 277 277 277
Wind_Speed
10 16 6 5 14 19 16 18 9 14 15 23 2 4 7 6 7 17 16 16 15 16 15 22 28 29 31 34 38 41 41 40 35 30 27 23 19 15 11 7 4 1 2 4
8 14 18 9 9 16 20 20 18 15 18 5 4 6 7 10 11 10 16 17 18 17 16 21 28 31 32 34 36 40 39 37 32 28 24 21 17 13 9 6 3 0 3 5
6 8 7 13 22 9 15 18 18 20 24 5 4 6 10 11 12 13 13 14 16 17 17 25 30 34 33 34 38 38 38 34 30 26 23 18 15 11 7 4 2 1 3 5
7 8 7 6 11 21 17 17 17 16 6 9 12 4 8 13 16 16 16 16 16 15 22 25 31 33 37 37 37 38 35 31 27 24 20 16 12 8 6 4 1 2 4 6
4 5 9 7 4 11 13 25 14 16 15 5 6 5 3 7 12 15 18 16 18 25 29 30 32 35 38 35 36 36 32 29 24 20 17 13 10 8 6 3 1 3 5 6
6 5 6 6 4 3 6 14 8 17 16 9 10 5 4 11 15 16 16 24 26 29 33 34 31 38 38 32 34 32 29 25 21 16 13 11 9 7 5 2 2 3 4 5
12 9 6 8 6 6 7 5 3 4 10 15 11 5 13 17 17 18 23 28 29 31 32 33 35 38 33 31 30 29 25 21 17 14 11 9 8 5 4 2 1 3 5 6
8 11 14 3 3 3 3 6 5 5 6 9 13 18 20 19 19 20 20 26 31 31 29 30 37 40 30 31 29 25 22 19 16 13 10 7 6 6 3 0 2 5 7 8
11 7 2 2 1 6 5 6 5 1 8 18 20 18 21 19 20 19 23 26 30 36 31 28 31 40 33 29 27 23 20 17 14 11 9 8 7 4 2 2 3 5 6 7
3 0 2 3 4 5 5 2 4 11 16 20 22 19 20 18 18 18 24 27 33 34 30 26 31 33 34 27 23 21 19 16 13 12 10 6 4 3 3 2 2 4 5 8
4 2 1 10 5 2 7 9 15 15 16 20 25 20 20 19 18 19 28 31 33 32 29 27 33 30 26 23 20 19 17 15 14 10 7 6 6 5 2 1 4 5 7 8
3 3 5 3 3 6 13 14 15 20 19 17 19 24 22 18 21 27 29 32 32 30 30 28 30 26 22 18 16 17 16 13 11 8 7 6 5 4 3 4 4 5 6 8
4 8 13 9 10 12 18 18 18 20 20 23 20 20 24 19 27 33 31 31 29 28 29 30 27 23 18 15 14 13 14 13 10 9 7 6 5 4 5 7 6 7 8 8
5 12 10 9 11 16 20 20 26 24 25 24 28 30 31 27 29 28 26 27 30 30 29 27 24 21 15 13 14 14 12 9 9 8 7 5 5 6 6 6 8 10 11 10
13 15 14 14 17 17 18 18 22 20 19 19 28 28 29 24 23 24 26 29 30 29 26 24 22 17 13 13 13 12 11 10 8 7 6 6 5 5 5 5 7 9 13 12
14 17 17 19 19 19 19 19 23 19 18 17 23 25 26 28 27 26 25 25 24 19 21 21 18 15 14 12 12 11 10 9 7 7 7 6 5 5 5 7 7 8 11 13
16 18 19 20 20 20 19 16 18 17 17 21 22 24 27 26 23 21 22 23 23 21 18 17 15 12 11 10 9 8 8 9 7 7 6 5 4 4 5 6 6 8 10 12
15 16 17 19 18 17 17 16 21 23 19 22 21 21 21 20 17 17 20 20 20 19 15 12 12 11 10 8 7 7 8 7 6 6 4 3 4 3 4 6 8 10 13 15
23 19 22 23 23 19 17 18 21 22 20 20 22 19 19 19 18 17 16 17 17 15 11 11 10 9 8 6 6 6 6 6 5 5 3 4 3 5 6 7 9 11 13 15
20 24 25 24 24 22 18 18 20 21 19 21 20 19 17 16 14 14 13 13 10 10 11 9 9 7 6 7 5 7 7 7 6 5 5 4 3 4 6 7 9 11 12 12
17 21 21 21 21 22 21 19 20 18 18 18 18 15 15 12 11 12 14 13 10 9 9 7 7 6 7 7 7 8 8 7 6 4 3 3 3 4 6 7 8 12 11 14
16 17 18 18 18 19 21 20 20 18 17 16 14 13 12 11 10 10 8 11 9 7 6 6 6 7 7 8 9 8 8 7 5 4 4 2 4 5 5 6 10 13 14 15
17 17 17 17 15 15 19 19 17 16 15 13 11 9 8 7 5 9 8 7 7 5 7 7 7 10 7 8 8 8 7 6 5 5 3 2 4 5 6 8 12 13 13 15
16 16 16 17 17 19 15 14 14 12 10 9 9 7 5 5 5 5 6 4 4 5 6 5 12 7 7 8 8 7 6 5 4 4 2 1 4 6 7 10 12 11 13 14
17 17 17 17 15 12 12 10 10 9 8 8 7 6 4 3 3 7 7 5 5 4 1 12 12 9 7 8 7 7 6 5 3 2 1 3 5 8 8 10 10 13 14 15
16 14 13 13 12 11 9 9 9 7 7 7 4 3 3 3 4 5 4 4 5 4 5 8 7 5 7 6 6 6 4 4 3 3 4 5 7 8 9 10 10 12 13 15
13 12 14 14 14 13 11 9 9 9 8 5 6 4 2 1 2 2 4 4 6 6 6 7 7 5 6 4 4 4 4 4 3 3 5 6 6 7 10 9 9 11 13 14
Wind_Direction
270 271 256 214 199 205 206 222 203 258 240 264 196 177 170 147 152 138 142 147 151 150 149 144 140 139 137 143 152 158 157 158 157 155 154 153 151 152 155 157 165 198 295 317
290 253 249 240 223 203 211 221 242 257 270 335 19 99 148 155 153 163 148 149 148 145 145 141 140 135 137 139 146 155 153 153 152 151 150 150 149 150 152 154 156 257 323 321
282 332 224 246 228 210 220 225 219 234 248 181 244 188 167 165 156 152 148 148 142 144 144 144 139 137 136 139 147 149 150 149 149 149 147 147 147 147 149 149 151 354 332 335
287 328 225 261 189 217 221 232 226 247 267 206 244 132 153 172 157 150 143 142 141 139 134 134 131 129 133 139 144 145 145 146 147 148 145 144 145 145 146 145 126 347 350 342
269 272 300 313 225 187 196 239 220 220 236 183 116 80 51 160 155 148 143 139 135 135 130 126 125 128 128 133 139 142 143 144 147 149 143 142 143 143 143 144 72 1 341 337
199 242 251 241 232 114 103 254 212 203 220 159 143 181 181 136 130 130 127 132 130 127 124 121 126 130 128 129 134 137 143 141 143 143 141 141 141 143 144 116 33 333 340 344
217 239 285 266 322 324 128 241 17 208 203 166 195 199 138 134 128 126 128 126 124 126 124 124 128 130 123 130 129 138 138 136 134 133 136 139 141 134 125 121 332 348 342 338
228 217 244 18 0 186 318 316 313 298 189 154 113 121 125 124 122 119 120 121 122 116 113 119 129 129 122 123 133 135 134 131 128 128 132 135 131 130 144 52 10 5 353 329
194 200 216 127 187 290 297 271 293 327 113 124 122 123 123 125 123 121 122 121 121 113 107 112 122 131 121 131 136 133 130 126 126 128 128 131 139 138 93 55 35 350 324 321
229 158 336 31 30 351 332 12 69 112 122 122 121 122 117 114 116 115 116 116 117 112 109 105 117 123 127 133 132 131 128 127 129 131 129 123 113 99 94 84 334 326 324 327
299 288 158 41 40 12 62 76 89 91 107 119 118 113 116 116 116 117 115 112 109 108 106 106 118 121 125 128 133 129 127 128 130 125 113 104 107 104 74 7 336 339 345 345
297 330 59 50 33 89 92 90 95 103 99 95 107 115 113 110 112 109 106 107 104 106 108 111 118 119 121 124 129 131 129 131 126 118 119 119 122 117 90 45 33 16 2 350
296 71 90 96 82 88 94 93 93 95 98 105 99 104 104 105 105 105 103 104 106 108 114 120 120 116 115 118 124 126 129 131 134 138 127 118 105 81 55 49 39 33 11 355
79 95 73 76 98 92 91 93 92 91 92 95 101 96 96 97 96 96 97 104 109 113 116 119 117 112 112 116 122 124 130 138 136 123 124 112 90 67 56 45 25 11 9 358
68 82 97 102 89 86 90 95 89 88 90 87 87 94 95 94 91 93 100 107 112 113 117 119 117 116 123 129 130 128 128 118 109 116 108 99 81 73 52 29 6 360 356 359
74 79 84 84 85 84 87 86 90 86 83 85 86 84 90 94 96 97 103 112 111 112 123 124 121 124 130 128 122 111 98 112 108 107 95 91 77 63 42 18 4 357 354 347
73 74 79 76 76 76 75 76 81 85 86 83 87 95 95 95 94 93 97 107 110 113 120 122 117 122 121 111 99 109 124 110 95 97 94 86 75 63 25 6 3 352 347 345
72 64 69 73 74 72 67 67 72 78 81 91 94 94 91 88 93 94 103 109 108 105 106 111 115 114 113 107 109 115 109 109 114 106 102 94 99 50 21 7 358 353 346 340
54 61 57 56 59 63 60 61 67 74 75 82 84 82 88 93 100 106 112 114 114 111 111 112 115 122 122 121 111 119 129 133 137 131 128 101 58 20 8 0 350 346 346 343
56 61 66 67 64 67 71 68 76 76 80 89 91 87 83 92 101 107 115 114 118 120 130 131 135 126 124 133 130 145 153 156 152 142 118 84 46 23 2 351 351 351 344 341
54 58 59 61 61 58 59 67 76 72 86 95 94 95 100 102 108 123 125 115 118 128 128 138 142 148 161 152 153 160 164 161 154 148 129 85 36 5 359 1 348 345 345 344
56 60 62 63 64 60 65 74 79 81 82 86 91 98 103 98 102 105 120 132 134 140 147 154 151 158 157 165 159 160 158 157 150 141 130 90 11 4 358 344 343 347 344 344
57 60 61 59 62 70 74 71 72 75 75 75 77 78 82 88 99 124 108 127 141 145 162 161 166 145 156 156 159 159 157 160 160 160 156 39 12 1 346 339 341 347 348 347
58 57 60 69 71 63 53 54 57 61 68 68 65 64 70 97 98 132 134 143 160 180 188 193 156 147 152 160 162 163 165 165 172 175 175 354 349 338 338 337 342 347 349 350
66 66 64 61 55 53 60 55 63 59 61 67 68 69 88 127 154 149 155 167 174 174 146 181 153 152 163 169 174 178 181 177 180 190 288 308 324 329 323 331 336 339 343 343
60 60 58 57 55 50 46 42 54 54 43 48 60 60 103 121 143 173 185 179 177 171 180 130 147 167 163 164 178 189 192 192 225 246 276 294 303 313 317 327 336 336 341 344
56 51 50 48 39 31 27 21 18 9 360 356 0 13 10 1 167 169 179 180 175 172 166 159 155 160 171 176 179 194 210 233 230 256 260 276 295 307 326 334 330 336 342 346